Flag for Canada Weather past 2 weeks in Nanaimo, British Columbia, Canada

Now
46 °F

Cool.


Feels Like: 37 °F
Forecast: 40 / 45 °F
Wind: 29 mph from Southeast

Location: Entrance Island

Current Time: Dec 20, 2014 at 6:10:09 AM

Latest Report: Dec 20, 2014 at 5:00 AM


Visibility: N/A

Pressure: 29.60 "Hg

Humidity: 84%

Dew point: 41 °F

Location of NanaimoLocation

Historic Weather in Nanaimo — Graph

°F

Nanaimo temperature yesterday

Maximum temperature yesterday: 49 °F (at 1:00 AM)
Minimum temperature yesterday: 46 °F (at 11:00 AM)
Average temperature yesterday: 48 °F

Past Weeks' High & Low Weather Summary

 TemperatureHumidityPressure
High59 °F (Dec 9, 1:00 PM)97% (Dec 18, 11:00 AM)30.25 "Hg (Dec 18, 11:00 AM)
Low39 °F (Dec 14, 9:00 PM)59% (Dec 9, 2:00 PM)29.15 "Hg (Dec 11, 6:00 PM)
Average47 °F84%29.81 "Hg
* Reported Dec 5 5:00 AM — Dec 20 5:00 AM, Nanaimo, Weather by CustomWeather, © 2014

Note: Actual official high and low records may vary slightly from our data, if they occured in-between our weather recording intervals... More about our weather records

Advertising

Nanaimo weather history for previous 24 hours

 ConditionsComfort  
Time TempWeatherWind HumidityBarometerVisibility
5:00 AM
Dec 20
46 °FCool.29 mph84%29.60 "HgN/A
4:00 AM47 °FCool.35 mph83%29.62 "HgN/A
3:00 AM47 °FCool.30 mph82%29.65 "HgN/A
2:00 AM47 °FCool.28 mph83%29.67 "HgN/A
1:00 AM47 °FCool.25 mph83%29.71 "HgN/A
12:00 AM47 °FCool.21 mph85%29.75 "HgN/A
11:00 PM
Dec 19
47 °FCool.22 mph84%29.78 "HgN/A
10:00 PM47 °FCool.18 mph83%29.79 "HgN/A
9:00 PM48 °FCool.23 mph84%29.79 "HgN/A
8:00 PM47 °FCool.18 mph82%29.82 "HgN/A
7:00 PM47 °FCool.15 mph85%29.85 "HgN/A
6:00 PM47 °FCool.17 mph86%29.86 "HgN/A
5:00 PM47 °FCool.16 mph87%29.86 "HgN/A
4:00 PM48 °FCool.24 mph76%29.85 "HgN/A
3:00 PM48 °FCool.20 mph79%29.84 "HgN/A
2:00 PM48 °FCool.23 mph75%29.84 "HgN/A
1:00 PM48 °FCool.22 mph72%29.83 "HgN/A
12:00 PM48 °FCool.16 mph79%29.85 "HgN/A
11:00 AM46 °FCool.21 mph82%29.84 "HgN/A
10:00 AM47 °FCool.12 mph77%29.83 "HgN/A
9:00 AM47 °FCool.6 mph77%29.80 "HgN/A
8:00 AM46 °FCool.14 mph82%29.78 "HgN/A
7:00 AM47 °FCool.15 mph80%29.75 "HgN/A
6:00 AM48 °FCool.12 mph77%29.74 "HgN/A
Weather by CustomWeather, © 2014

See weather overviewHow to use our weather pages